Flag for U.S.A. Weather past 2 weeks in Lexington, North Carolina, U.S.A.

Now
78 °F

Overcast.


Feels Like: 79 °F
Forecast: 61 / 75 °F
Wind: 8 mph from East

Location: Davidson County Airport

Current Time: Sep 19, 2014 at 4:08:30 PM

Latest Report: Sep 19, 2014 at 3:30 PM


Visibility: 10 mi

Pressure: 30.17 "Hg

Humidity: 48%

Dew point: 56 °F

Location of LexingtonLocation

Historic Weather in Lexington — Graph

°F

Lexington temperature yesterday

Maximum temperature yesterday: 78 °F (at 2:55 PM)
Minimum temperature yesterday: 59 °F (at 6:30 AM)
Average temperature yesterday: 67 °F

Past Weeks' High & Low Weather Summary

 TemperatureHumidityPressure
High89 °F (Sep 6, 3:35 PM)100% (Sep 4, 2:35 PM)30.30 "Hg (Sep 4, 2:35 PM)
Low59 °F (Sep 18, 6:30 AM)48% (Sep 6, 3:55 PM)29.92 "Hg (Sep 17, 5:15 PM)
Average71 °F85%30.09 "Hg
* Reported Sep 4 2:15 PM — Sep 19 2:50 PM, Lexington, Weather by CustomWeather, © 2014

Note: Actual official high and low records may vary slightly from our data, if they occured in-between our weather recording intervals... More about our weather records

Advertising

Lexington weather history for previous 24 hours

 ConditionsComfort  
Time TempWeatherWind HumidityBarometerVisibility
2:50 PM
Sep 19
77 °FPartly sunny.5 mph50%30.17 "Hg10 mi
2:15 PM77 °FScattered clouds.6 mph51%30.17 "Hg10 mi
1:55 PM77 °FScattered clouds.6 mph51%30.17 "Hg10 mi
1:15 PM77 °FScattered clouds.5 mph49%30.18 "Hg10 mi
12:55 PM77 °FScattered clouds.7 mph50%30.18 "Hg10 mi
12:35 PM77 °FPartly sunny.3 mph51%30.19 "Hg10 mi
12:15 PM73 °FPartly sunny.5 mph56%30.19 "Hg10 mi
11:55 AM75 °FBroken clouds.6 mph54%30.19 "Hg10 mi
11:35 AM72 °FBroken clouds.6 mph63%30.19 "Hg10 mi
11:10 AM72 °FPartly sunny.5 mph65%30.19 "Hg10 mi
10:55 AM71 °FOvercast.5 mph71%30.18 "Hg10 mi
10:35 AM69 °FOvercast.5 mph75%30.19 "Hg10 mi
10:15 AM68 °FMostly cloudy.No wind77%30.18 "Hg10 mi
9:55 AM67 °FMostly cloudy.No wind77%30.17 "Hg10 mi
9:35 AM66 °FMore clouds than sun.No wind83%30.17 "Hg10 mi
9:15 AM65 °FMore clouds than sun.No wind86%30.17 "Hg10 mi
8:55 AM65 °FMore clouds than sun.No wind89%30.16 "Hg10 mi
8:35 AM65 °FMore clouds than sun.No wind90%30.16 "Hg10 mi
8:15 AM64 °FMostly cloudy.No wind93%30.15 "Hg10 mi
7:55 AM64 °FOvercast.No wind94%30.14 "Hg10 mi
7:35 AM64 °FMostly cloudy.No wind95%30.13 "Hg7 mi
7:15 AM65 °FMostly cloudy.No wind95%30.13 "Hg7 mi
6:55 AM65 °FOvercast.No wind95%30.12 "Hg7 mi
6:35 AM65 °FOvercast.No wind96%30.12 "Hg7 mi
6:15 AM65 °FFog.No wind96%30.12 "Hg5 mi
5:55 AM65 °FFog.No wind97%30.11 "Hg5 mi
5:35 AM65 °FFog.No wind97%30.10 "Hg5 mi
5:15 AM64 °FFog.No wind98%30.09 "Hg3 mi
4:55 AM65 °FFog.No wind96%30.09 "Hg5 mi
4:35 AM65 °FFog.No wind96%30.09 "Hg5 mi
4:15 AM65 °FFog.No wind97%30.08 "Hg5 mi
3:55 AM65 °FFog.No wind97%30.08 "Hg4 mi
3:35 AM65 °FFog.No wind97%30.08 "Hg5 mi
3:15 AM65 °FFog.No wind97%30.08 "Hg4 mi
2:55 AM65 °FFog.No wind97%30.08 "Hg5 mi
2:35 AM66 °FOvercast.No wind94%30.07 "Hg7 mi
2:15 AM65 °FMostly cloudy.No wind95%30.08 "Hg7 mi
1:55 AM66 °FMostly cloudy.No wind94%30.08 "Hg7 mi
1:35 AM66 °FOvercast.No wind94%30.07 "Hg7 mi
1:15 AM65 °FOvercast.No wind95%30.07 "Hg7 mi
12:55 AM65 °FFog.No wind96%30.07 "Hg5 mi
12:35 AM65 °FPassing clouds.No wind94%30.06 "Hg7 mi
12:15 AM65 °FPassing clouds.No wind96%30.06 "Hg7 mi
11:55 PM
Sep 18
66 °FPassing clouds.No wind93%30.06 "Hg10 mi
11:35 PM66 °FPartly cloudy.No wind93%30.06 "Hg7 mi
11:15 PM67 °FMostly cloudy.No wind93%30.06 "Hg10 mi
10:55 PM68 °FOvercast.No wind89%30.06 "Hg10 mi
10:35 PM67 °FDrizzle. Mostly cloudy.No wind96%30.06 "Hg5 mi
10:15 PM67 °FLight rain. Overcast.No wind95%30.06 "Hg7 mi
9:55 PM70 °FLight rain. Overcast.No wind81%30.05 "Hg10 mi
9:35 PM70 °FPassing clouds.No wind79%30.04 "Hg10 mi
9:15 PM70 °FPassing clouds.No wind78%30.03 "Hg10 mi
8:55 PM70 °FPartly cloudy.3 mph78%30.02 "Hg10 mi
8:35 PM69 °FOvercast.No wind85%30.01 "Hg10 mi
8:15 PM69 °FCloudy.No wind84%30.01 "Hg10 mi
7:55 PM70 °FPartly sunny.No wind82%30.00 "Hg10 mi
7:35 PM69 °FMostly cloudy.No wind86%29.99 "Hg10 mi
7:15 PM69 °FBroken clouds.No wind86%29.99 "Hg10 mi
6:55 PM70 °FBroken clouds.No wind85%29.99 "Hg10 mi
6:35 PM70 °FScattered clouds.No wind82%29.99 "Hg10 mi
6:15 PM71 °FScattered clouds.No wind79%29.98 "Hg10 mi
5:55 PM75 °FScattered clouds.No wind69%29.98 "Hg10 mi
5:35 PM75 °FScattered clouds.No wind74%29.98 "Hg10 mi
5:15 PM76 °FScattered clouds.No wind60%29.98 "Hg10 mi
4:55 PM76 °FScattered clouds.No wind66%29.98 "Hg10 mi
4:35 PM77 °FSunny.No wind64%29.98 "Hg10 mi
4:15 PM76 °FBroken clouds.No wind61%29.98 "Hg10 mi
Weather by CustomWeather, © 2014

See weather overviewHow to use our weather pages